THORAD DELTA 1 DEB, 8154

Orbit data source: Space-Track

THORAD DELTA 1 DEB, 8154 is space debris in SSO originally from a launch on Fri, 15 Nov 1974 UTC launched from the Air Force Western Test Range (AFWTR). Debris objects in space refer to the collection of defunct objects orbiting the Earth. Examples of debris include non-operational satellites, rocket bodies, and fragments generated from explosions, collisions, or faulty payload assembly.

Loading next visibility...
Identifier
8154, 1974-089U
Orbit
SSO
Country
Flag of USUS
Related business
Manufacturer
Unknown
Mission
Spacecraft
Bus & Motor
Unknown
Mass
Unknown
Launch date (UTC)
1974-11-15 (51 years ago)
Launch vehicle
Unknown
Launch site
Air Force Western Test Range (AFWTR)
Object type
Payload
Rocket body
Debris
Shape & HBR
Unknown shape, 0.2 m
Radar Cross Section
Small (<0.1 m²)

Expand to show TLE details & history
Last TLE update: 10 hours ago

TLE from 10 hours ago
0 THORAD DELTA 1 DEB
1  8154U 74089U   26035.50657161 -.00000042  00000-0  30150-4 0  9993
2  8154 102.0709  40.8478 0005576 202.6851 309.5593 12.52429924341537
Epoch: 2026-02-04T12:09Z
TLE epoch observation values (Epoch: 2026-02-04T12:09:27.787Z)
Latitude
27.17707°
Longitude
-89.91771°
Altitude
1,454.584 km
Speed
7.139 km/s
True Right ascension
15h 08m 28s
True Declination
27° 03' 00"
Sunlit
Object was in daylight at epoch
Visualization orbit readout
Latitude
Unknown
Longitude
Unknown
Altitude
Unknown
Speed
Unknown
Apparent Right ascension
Unknown
Apparent Declination
Unknown
Sunlit
N/A
Visualization observer readout
Local Sidereal Time
00:14:22
Azimuth
Unknown
Elevation
Unknown
Doppler factor
Unknown
Orbital elements
Apogee altitude
1,456.276 km
Perigee altitude
1,447.544 km
Semi-major axis
7,830.047 km
Eccentricity
0.00056
Inclination
102.0709°
RAAN
40.8478°
Arg. of periapsis
202.6851°
True anomaly
309.51002°
Mean anomaly
309.5593°
Eccentric anomaly
309.53466°
Mean motion
3.13254 °/min
Orbital period
114.92 mins
BSTAR
0.00003015
Loading maneuver chart data...
Computing Atmospheric mass density...
Loading historical data...
Loading historical data...
Loading historical data...
Loading historical data...
Loading historical data...
Loading historical data...
Loading historical data...

Documentation

Showing up to 5 results
|